Home   Weather   Hilversum   Past weeks

Flag for Netherlands Past Weather in Hilversum, Netherlands — Yesterday and Last 2 Weeks

Now
56 °F

Drizzle. Overcast.


Feels Like: 56 °F
Forecast: 54 / 65 °F
Wind: 3 mph from Southwest

Location: De Bilt

Current Time: Aug 19, 2017 at 9:41:01 am

Latest Report: Aug 19, 2017 at 8:00 am


Visibility: 7 mi

Pressure: 29.90 "Hg

Humidity: 95%

Dew Point: 54 °F

Location of HilversumLocation

Past Weather in Hilversum — Graph

°F

Hilversum Temperature Yesterday

Maximum temperature yesterday: 68 °F (at 5:00 pm)
Minimum temperature yesterday: 57 °F (at 11:00 pm)
Average temperature yesterday: 63 °F

High & Low Weather Summary for the Past Weeks

 TemperatureHumidityPressure
High75 °F (Aug 14, 6:00 pm)100% (Aug 6, 5:00 am)30.22 "Hg (Aug 6, 5:00 am)
Low49 °F (Aug 7, 6:00 am)44% (Aug 6, 5:00 pm)29.74 "Hg (Aug 8, 6:00 pm)
Average62 °F82%30.01 "Hg
* Reported Aug 4 8:00 am — Aug 19 8:00 am, Hilversum. Weather by CustomWeather, © 2017

Note: Actual official high and low records may vary slightly from our data, if they occured in-between our weather recording intervals... More about our weather records

Advertising

Hilversum Weather History for the Previous 24 Hours

Scroll right to see more
 ConditionsComfort  
Time TempWeatherWind HumidityBarometerVisibility
8:00 am
Sat, Aug 19
56 °FDrizzle. Overcast.3 mph95%29.90 "Hg7 mi
7:00 am55 °FRain. Overcast.6 mph92%29.88 "Hg4 mi
6:00 am55 °FRain showers. Overcast.6 mph89%29.87 "Hg6 mi
5:00 am56 °FPassing clouds.6 mph87%29.87 "Hg12 mi
4:00 am56 °FOvercast.6 mph87%29.88 "Hg15 mi
3:00 am56 °FPassing clouds.5 mph88%29.89 "Hg19 mi
2:00 am55 °FClear.3 mph89%29.89 "Hg19 mi
1:00 am56 °FPassing clouds.3 mph85%29.90 "Hg22 mi
12:00 am56 °FClear.3 mph85%29.89 "Hg22 mi
11:00 pm
Fri, Aug 18
57 °FPassing clouds.3 mph84%29.89 "Hg19 mi
10:00 pm60 °FPassing clouds.3 mph73%29.88 "Hg25 mi
9:00 pm64 °FOvercast.6 mph70%29.85 "Hg17 mi
8:00 pm66 °FOvercast.6 mph64%29.84 "Hg19 mi
7:00 pm67 °FOvercast.5 mph66%29.83 "Hg19 mi
6:00 pm68 °FOvercast.3 mph73%29.83 "Hg16 mi
5:00 pm68 °FOvercast.3 mph71%29.83 "Hg18 mi
4:00 pm67 °FOvercast.5 mph71%29.84 "Hg14 mi
3:00 pm66 °FOvercast.5 mph83%29.85 "Hg18 mi
2:00 pm64 °FOvercast.5 mph90%29.85 "Hg22 mi
1:00 pm64 °FRain showers. Low clouds.5 mph93%29.85 "Hg13 mi
12:00 pm66 °FOvercast.5 mph85%29.86 "Hg18 mi
11:00 am66 °FOvercast.5 mph86%29.87 "Hg14 mi
10:00 am64 °FOvercast.5 mph85%29.88 "Hg19 mi
9:00 am63 °FOvercast.5 mph87%29.88 "Hg15 mi
Weather by CustomWeather, © 2017

See weather overviewHow to use our weather pages